Theta_e
301 301 301 301 301 301 300 300 299 297 295 293 293 295 296 296 297 298 297 296 296 295 296 294 292 289 288 287 286 286 284 282 280 278 280 281 280 280 281 281 281 281 281
300 300 300 300 299 299 299 299 296 295 292 291 290 289 291 293 294 295 293 295 294 293 293 292 290 289 287 287 285 284 283 282 280 278 278 279 278 279 279 279 280 281 281
299 299 298 298 297 297 297 296 293 292 290 288 287 287 287 290 290 292 292 291 292 292 291 289 286 285 283 282 282 282 282 281 280 279 277 278 278 279 279 279 279 280 281
298 298 297 297 296 296 296 294 291 290 287 286 286 285 285 286 288 288 288 288 288 287 286 286 284 284 282 282 282 281 281 280 280 278 277 277 277 279 279 278 278 280 280
297 296 298 295 295 294 292 290 288 287 286 285 284 284 284 285 286 286 286 286 285 284 284 284 284 284 285 284 282 280 280 279 279 279 277 277 277 277 277 279 278 279 279
295 295 295 292 291 290 290 288 286 285 284 284 283 283 283 284 287 289 287 285 284 284 282 283 283 283 284 286 285 284 282 280 279 279 279 278 278 279 279 278 278 277 275
290 290 290 290 289 289 288 286 285 284 283 282 282 282 282 283 288 289 288 284 284 283 283 282 282 283 283 283 285 285 285 286 285 282 280 280 279 280 279 279 279 278 276
287 286 287 287 287 288 286 285 283 282 281 281 281 283 282 282 288 289 287 284 284 283 283 282 282 281 282 283 282 282 283 284 284 283 282 281 281 281 281 281 279 278 277
286 286 285 284 285 284 284 283 281 279 279 279 283 282 282 281 287 289 286 282 282 282 282 283 282 281 284 285 281 281 280 281 285 285 283 284 285 285 282 279 275 274 272
284 285 285 283 283 283 283 281 278 277 280 282 282 282 282 282 287 289 286 282 281 280 281 281 282 281 285 285 283 281 279 280 280 280 281 283 284 283 285 281 278 272 271
282 282 281 281 279 280 278 277 276 279 282 281 281 281 281 282 285 288 287 282 281 279 280 280 281 285 286 287 285 282 281 281 281 278 279 279 279 279 278 278 277 273 267
279 278 276 274 277 277 275 272 274 280 281 280 279 279 280 281 284 288 287 284 284 280 280 280 282 286 287 288 284 285 285 282 279 278 277 277 277 277 276 274 274 273 273
274 273 272 273 274 273 274 273 274 277 280 278 278 278 278 280 283 287 288 286 286 281 281 283 285 287 288 288 286 285 284 281 279 277 276 275 275 275 273 271 270 270 270
273 274 274 275 275 275 276 276 275 274 275 276 277 277 277 279 281 283 285 284 284 282 282 283 285 286 286 285 284 285 282 282 279 277 275 272 272 270 266 265 263 263 260
275 275 276 277 278 277 276 276 277 276 278 278 279 279 277 277 280 283 284 283 283 283 281 282 282 283 282 280 279 277 276 276 275 273 272 269 269 268 265 264 263 257 257
277 276 277 279 279 279 279 279 284 284 285 284 283 281 279 281 283 284 287 286 285 286 282 281 281 281 279 277 275 273 272 272 272 270 270 269 267 265 263 263 261 256 255
281 280 278 278 278 278 278 278 278 281 285 285 285 284 283 282 283 285 286 286 286 286 280 280 279 278 274 272 272 271 270 271 270 270 268 267 265 264 263 260 260 258 254
279 281 280 279 279 279 278 278 277 278 278 277 283 283 285 284 285 285 286 286 284 284 281 279 279 277 275 274 272 271 269 268 267 266 266 264 262 261 257 258 259 254 253
278 280 280 280 279 280 279 278 278 278 277 275 276 279 278 283 284 286 286 283 278 281 280 279 279 277 276 275 273 271 269 267 266 264 261 260 259 257 252 256 256 256 254
276 279 279 279 278 278 278 277 276 276 276 276 275 274 274 277 276 271 274 277 273 272 272 273 271 270 271 270 265 263 262 262 261 261 258 259 259 258 256 254 254 252 252
274 275 277 276 276 276 276 276 275 275 275 274 272 274 277 274 272 272 271 271 272 272 271 269 266 265 264 263 261 259 259 258 256 259 259 259 256 256 255 256 254 253 253
271 272 272 272 273 273 273 273 274 273 273 270 268 270 272 264 264 265 264 263 262 261 261 261 260 259 257 258 257 258 258 259 259 259 258 257 256 255 254 255 254 255 254
268 268 267 267 268 269 268 268 269 269 268 266 265 263 263 263 262 261 260 257 256 256 254 255 256 252 251 253 255 260 260 259 259 257 256 256 256 256 255 256 256 255 255
266 265 265 265 265 265 264 263 263 264 262 261 261 261 261 261 259 258 256 254 254 253 254 254 254 255 254 252 253 254 256 256 257 258 258 257 256 256 255 255 255 256 256
263 263 262 262 261 259 257 257 258 257 258 259 258 258 258 259 259 257 256 256 256 256 256 256 256 257 256 255 254 253 252 260 254 256 256 255 253 254 255 255 255 256 256
261 261 260 259 258 257 257 256 254 255 254 255 256 256 256 256 255 255 255 254 253 252 251 251 251 251 249 250 250 252 255 259 254 256 253 254 254 254 255 255 255 255 255
Wind_Speed
7 6 7 6 7 6 6 6 6 6 8 8 8 8 8 9 9 9 9 10 12 11 10 11 13 10 8 6 5 6 5 4 4 1 2 4 7 8 5 4 5 4 4
6 6 7 6 6 7 7 7 6 7 6 8 8 8 8 8 7 9 8 9 11 12 12 12 12 7 7 7 7 6 5 2 4 6 2 3 3 3 4 5 4 3 3
6 7 7 7 7 7 7 7 7 7 7 6 6 8 9 10 10 10 9 8 9 9 9 10 9 10 7 5 4 5 5 4 4 5 4 2 2 3 3 2 3 3 4
7 7 8 8 7 7 7 7 8 7 7 7 7 7 7 7 8 8 8 8 7 7 8 9 10 12 12 11 8 7 4 5 6 7 4 4 3 2 3 2 2 3 2
7 7 11 6 6 6 6 6 6 6 6 6 6 6 7 7 6 8 8 9 9 8 8 9 9 10 15 13 8 7 7 4 7 7 4 3 2 2 3 2 3 2 3
7 10 7 6 6 7 7 7 6 6 6 6 6 7 7 5 14 17 13 10 10 12 11 9 9 12 15 20 16 15 12 11 6 5 3 4 4 3 3 4 3 1 2
7 8 7 6 7 7 6 6 7 8 5 6 6 6 7 6 15 18 17 9 10 10 11 11 10 9 11 11 17 17 13 13 10 7 8 6 5 6 5 4 3 4 3
7 6 6 5 6 5 6 7 5 5 7 6 6 7 6 5 15 17 16 8 9 11 12 13 12 13 14 15 14 11 9 8 8 6 6 7 7 6 5 5 5 3 1
7 7 6 5 5 4 5 5 3 3 3 3 4 7 8 7 17 18 17 9 9 11 11 13 15 15 23 25 14 12 8 6 10 12 10 13 11 12 9 3 3 2 1
6 7 7 5 6 7 6 6 3 3 3 4 4 6 7 7 18 20 17 7 8 7 8 9 17 16 26 24 11 11 9 7 7 5 4 6 8 7 11 5 4 3 2
6 5 5 4 3 3 3 4 5 4 5 5 5 4 6 7 12 21 23 8 9 9 8 8 8 22 24 22 15 9 8 9 12 6 5 4 4 4 2 3 4 4 3
5 4 3 3 2 2 5 2 3 4 5 4 5 3 3 5 10 20 23 15 14 9 8 7 8 24 24 20 14 14 14 14 6 5 5 4 4 4 4 4 5 4 3
3 3 2 3 1 2 4 4 3 4 5 4 4 4 3 3 5 17 20 18 18 9 8 13 18 21 20 17 17 18 13 6 6 5 5 3 4 5 6 4 5 5 4
3 2 0 2 1 3 1 2 4 4 3 4 4 3 3 1 3 2 6 8 13 10 15 13 17 14 13 9 8 10 7 7 7 6 5 4 5 4 2 2 3 2 2
3 2 2 2 3 3 2 4 4 3 6 6 5 5 5 5 5 7 7 7 6 9 8 7 7 7 7 5 4 2 4 5 5 4 5 5 4 4 2 1 2 2 3
3 2 3 2 2 2 2 2 9 8 12 12 12 8 4 7 14 17 16 17 17 19 5 6 7 7 8 6 6 4 3 5 5 5 6 6 6 6 4 3 3 3 3
5 4 3 3 2 3 2 1 1 3 6 5 8 11 11 6 10 15 17 19 18 17 6 7 6 7 4 5 5 4 5 5 5 5 5 6 5 5 6 3 2 2 2
6 6 3 2 3 3 3 3 2 4 4 2 5 2 8 8 10 12 15 14 8 12 6 6 5 5 5 6 5 5 4 5 5 6 6 7 7 6 3 4 4 4 3
5 2 2 3 2 3 3 2 3 3 3 2 3 4 4 4 4 11 13 4 3 2 5 5 6 7 6 6 5 6 6 7 6 6 5 5 6 5 3 4 5 5 5
3 1 3 2 3 1 1 3 0 1 3 3 3 2 2 0 1 2 2 2 3 3 2 4 3 4 5 5 5 5 3 4 5 5 4 5 5 5 4 4 5 3 4
1 3 2 1 3 2 2 3 2 2 2 2 2 1 5 2 3 3 3 3 3 3 3 3 2 2 2 3 3 4 4 3 3 4 4 4 5 5 3 3 4 3 3
3 2 1 3 3 3 2 3 3 1 2 3 2 3 10 4 3 3 4 3 3 3 2 3 3 2 3 4 5 5 5 5 4 5 5 5 5 4 4 3 4 4 4
3 3 5 5 4 5 4 4 3 2 4 3 3 3 3 3 3 3 3 2 2 3 1 3 3 2 1 2 3 4 5 6 6 6 6 6 6 6 6 6 6 6 5
6 7 5 4 4 4 3 3 3 5 4 3 3 2 3 3 3 3 2 2 2 1 1 2 2 3 3 3 2 3 3 3 5 7 9 8 8 8 6 5 5 5 4
7 7 6 5 4 3 3 3 4 4 4 3 3 2 3 3 3 2 1 2 1 1 2 2 2 3 4 5 4 3 4 6 4 4 4 4 5 7 6 6 6 5 6
6 6 5 3 2 2 3 3 3 4 3 2 2 2 2 1 0 1 1 1 1 2 3 2 3 5 5 4 5 5 6 7 6 6 5 5 6 5 6 7 9 6 6
Wind_Direction
214 218 213 213 212 211 213 213 206 179 175 179 186 192 195 193 191 194 199 191 198 200 202 199 205 187 177 164 152 172 159 149 124 192 126 162 163 166 171 171 193 210 219
225 226 227 221 220 220 217 211 190 189 182 178 175 179 186 194 195 201 195 197 201 201 197 193 197 181 172 172 162 167 163 149 95 163 125 126 137 146 147 173 204 206 212
223 223 232 227 218 219 218 203 188 182 187 188 182 190 191 192 191 198 195 191 196 196 187 182 166 150 139 129 127 131 137 149 116 156 129 110 100 127 138 176 208 233 225
223 225 236 228 222 219 212 197 188 192 184 187 194 196 195 190 195 190 184 179 173 164 162 159 157 160 153 150 149 157 123 139 134 125 98 113 121 134 115 156 245 239 262
228 230 242 227 219 225 221 209 190 194 199 189 185 193 186 188 193 186 181 176 168 156 153 152 151 151 150 148 144 156 150 126 131 122 98 99 133 125 173 172 207 218 254
244 242 247 226 218 223 219 203 187 205 197 188 196 193 194 201 197 194 176 173 169 163 159 150 148 148 163 171 172 166 162 147 134 127 125 153 173 157 156 189 165 164 272
273 267 255 236 226 219 207 192 199 204 188 193 187 177 196 198 198 194 180 172 169 169 162 156 155 152 155 163 172 159 152 151 139 143 161 160 157 173 158 171 184 195 204
293 280 272 254 248 229 204 208 197 183 190 185 191 190 183 197 202 200 187 175 172 171 167 162 157 155 164 162 154 149 157 126 157 148 153 158 143 153 159 183 200 196 57
287 285 267 233 230 205 216 206 187 165 181 194 187 178 181 184 197 192 181 176 174 174 172 170 168 168 173 162 153 146 149 160 163 156 165 154 159 177 186 165 188 165 212
289 281 273 245 224 208 196 179 180 164 181 177 183 189 184 189 200 198 181 172 168 161 160 165 170 161 170 165 155 159 163 169 163 139 148 179 194 207 221 188 158 155 139
287 278 275 256 226 229 179 156 161 151 158 174 183 186 187 193 196 197 184 180 172 161 166 168 171 168 173 172 168 161 169 163 176 160 174 182 179 172 148 131 140 135 141
298 303 293 277 247 164 156 143 114 154 166 168 165 170 194 206 203 201 190 188 174 166 171 160 164 177 179 177 164 168 182 164 152 165 169 179 183 165 141 128 115 104 99
310 299 308 328 51 142 137 142 128 145 166 168 176 183 182 191 206 210 191 187 177 164 158 165 174 183 185 182 172 189 179 153 158 176 176 166 149 140 123 93 70 71 82
263 262 210 142 122 117 72 156 151 159 166 158 166 166 156 176 195 218 172 162 175 171 171 177 180 174 175 168 182 189 173 181 172 177 151 123 116 121 126 136 125 129 100
280 263 233 173 157 139 177 181 190 199 176 174 178 172 168 195 204 202 179 165 172 169 157 157 170 173 185 166 150 143 141 145 149 132 142 149 146 146 157 143 123 111 156
233 231 229 221 183 157 156 220 204 187 195 193 188 174 179 203 202 199 187 180 180 176 162 176 183 190 193 167 159 156 157 151 148 140 153 164 166 168 159 159 142 150 173
243 219 210 206 198 164 142 153 155 161 157 156 183 169 182 198 203 195 189 182 185 182 168 183 184 194 169 160 165 172 173 178 146 160 164 173 166 172 164 164 150 145 191
274 220 196 202 218 189 152 178 179 160 146 99 56 110 162 195 185 193 194 187 187 197 175 168 170 169 166 171 170 174 156 155 174 175 178 178 174 165 156 171 178 168 162
289 194 176 141 224 209 175 160 129 151 126 100 65 50 19 136 166 182 193 182 166 198 161 160 167 164 169 177 177 178 177 185 187 177 179 173 168 156 171 167 172 173 155
308 103 140 143 147 193 105 93 13 112 126 126 123 115 315 129 93 55 68 105 115 121 128 155 155 156 164 169 158 149 149 154 169 173 172 168 171 178 172 167 173 155 192
329 13 89 96 81 69 77 111 99 86 119 106 82 114 64 83 95 80 78 65 75 106 111 103 113 124 131 140 132 145 155 163 151 158 166 164 157 186 165 167 164 183 165
342 86 13 69 82 86 88 84 91 114 126 120 69 30 77 70 80 86 78 67 60 67 73 135 149 178 173 163 162 158 167 172 166 169 173 173 174 166 160 162 178 184 192
80 36 60 50 35 39 43 30 49 73 82 80 88 79 73 85 84 88 104 121 108 106 85 105 138 147 177 165 155 167 183 195 191 171 174 177 180 181 179 192 195 203 202
73 69 48 55 56 49 58 50 45 53 53 41 49 60 81 82 83 83 92 97 90 80 81 109 172 183 185 195 193 197 187 168 170 185 177 181 187 185 184 193 194 205 206
43 54 51 44 50 39 43 38 59 58 53 35 35 49 60 66 82 101 151 159 171 181 225 225 231 239 227 222 226 210 212 205 175 171 175 167 167 169 180 190 188 200 199
54 60 59 48 54 43 62 62 60 64 61 49 29 26 47 39 297 259 264 247 245 263 269 254 244 238 243 242 239 227 218 227 195 187 163 163 172 182 185 196 195 201 206